Location: Atlanta
(33.7490°N, 84.3880°W)
Time: 20:19:14
(UTC-04:00)

Daily predictions for brighter satellites

Satellite Brightness Start Highest point End
(mag) Time Altitude Azimuth Time Altitude Azimuth Time Altitude Azimuth
Chandra Rocket (1) 4.2 20:35:20 10° WSW 20:40:51 65° S 21:03:49 10° E
FengYun 1-2 T 4.4 21:01:40 10° SSE 21:07:11 83° WSW 21:12:41 10° NNW
Delta 168 4.2 21:05:48 10° SSW 21:08:12 18° SSE 21:11:02 10° ESE
USA 186 1.7 21:09:19 10° SSE 21:12:10 49° ENE 21:14:53 10° N
Meteor 2-4 Rocket 4.1 21:07:58 10° SSE 21:13:29 47° E 21:19:07 10° NNE
Cosmos 2333 Rocket 3.9 21:10:02 10° SW 21:15:17 39° WNW 21:20:35 10° N
Meteor 1-19 Rocket 4.2 21:10:15 10° S 21:15:51 69° E 21:21:24 10° NNE
Okean 2 4.1 21:12:07 10° SSE 21:15:57 36° E 21:19:47 10° NNE
BREEZE M DEB (TANK) 4.4 21:15:37 10° NW 21:17:56 14° NNW 21:19:27 10° NNE
Cosmos 2297 4.1 21:15:26 10° N 21:20:59 51° ENE 21:26:32 10° SE
Cosmos 1844 Rocket 4.2 21:16:07 10° NW 21:21:13 36° WSW 21:26:17 10° SSW
FENGYUN 3A 3.6 21:20:01 10° SSE 21:25:21 80° ENE 21:30:45 10° N
H-2A R/B 2.8 21:24:02 10° SSE 21:27:57 86° E 21:31:56 10° N
Cosmos 1726 Rocket 3.6 21:24:49 10° N 21:29:14 63° E 21:33:35 10° SSE
ISS -2.2 21:27:56 10° S 21:30:35 23° SE 21:33:15 10° ENE
PSLV R/B 3.3 21:27:07 10° WSW 21:30:38 89° NNW 21:34:12 10° ENE
OTV 4 2.5 21:28:43 10° WSW 21:30:53 18° SSW 21:32:59 10° SSE
Cosmos 2285 Rocket 4.2 21:30:00 10° N 21:36:11 55° ENE 21:41:43 13° SE
Cosmos 2233 Rocket 4.4 21:30:54 10° NNW 21:37:05 67° W 21:43:11 10° S
Cosmos 494 Rocket 4.0 21:32:26 10° SSW 21:37:32 84° WNW 21:42:40 10° NNE
CZ-2C R/B 0.4 21:36:31 18° SSE 21:38:01 60° ENE 21:40:18 10° N
CZ-4 DEB 3.5 21:35:41 10° S 21:38:50 53° W 21:42:01 10° NNW
SPOT 5 4.0 21:36:20 14° ESE 21:38:52 23° ENE 21:42:18 10° NNE
Cosmos 2058 Rocket 3.0 21:38:35 10° N 21:42:57 68° E 21:46:56 12° SSE
YAOGAN 11 4.2 21:39:05 10° S 21:43:27 78° WSW 21:47:47 10° NNW
GEOS 3 Rocket 3.7 21:38:41 12° SSE 21:43:34 85° WSW 21:48:50 10° NW
Cosmos 1602 Rocket 4.1 21:40:36 11° SSE 21:44:32 40° E 21:48:43 10° NNE
Cosmos 1464 Rocket 4.0 21:41:07 10° N 21:47:13 65° E 21:53:02 11° SSE
ALOS 3.1 21:46:10 10° S 21:50:40 48° W 21:55:12 10° NNW
Aureole 2 Rocket 2.8 21:47:34 10° SSW 21:51:38 78° WNW 21:55:21 10° NNE
Cosmos 1072 Rocket 4.5 21:47:57 10° N 21:54:15 83° E 22:00:37 10° S
deb Chang Zheng 4 3.8 21:51:37 10° N 21:56:01 72° WNW 22:00:20 10° SSW
Cosmos 2278 Rocket 3.7 21:55:54 10° NW 22:00:56 33° WSW 22:05:56 10° SSW
Cosmos 2034 Rocket 4.0 21:59:28 10° N 22:05:50 69° E 22:10:30 19° SSE
Cosmos 1331 Rocket 4.3 22:00:58 10° NNW 22:06:08 65° WSW 22:10:15 16° S
Atlas Centaur 2 3.0 22:00:44 10° WSW 22:08:03 58° SSE 22:15:35 13° E
H-2A R/B 2.2 22:05:22 18° S 22:08:30 72° WSW 22:12:48 10° NNW
SeaSat 1 2.9 22:07:21 26° ESE 22:09:46 46° ENE 22:14:30 10° N
ARGOS 4.4 22:10:34 21° E 22:12:27 25° ENE 22:16:48 10° NNE
Meteor 1-15 Rocket 4.2 22:07:47 10° N 22:13:24 85° W 22:17:41 18° S
Cosmos 2369 Rocket 3.9 22:10:40 10° NNE 22:14:25 18° ENE 22:16:29 15° E
DEBRIS 3.1 22:10:56 10° NW 22:14:59 36° NNE 22:15:34 31° ENE
Cosmos 1302 Rocket 3.9 22:11:02 10° NNW 22:16:18 87° ENE 22:19:13 27° SSE
PSLV R/B 3.1 22:16:10 56° ESE 22:16:31 61° ENE 22:19:35 10° N
SL-16 R/B 4.2 22:12:08 10° WSW 22:17:03 30° WNW 22:22:00 10° N
Cosmos 1626 Rocket 3.6 22:13:36 13° S 22:17:34 81° W 22:22:01 10° N
Cosmos 1666 2.9 22:14:27 10° NNW 22:18:19 68° W 22:20:23 26° S
Cosmos 1939 Rocket 3.1 22:17:37 26° S 22:19:55 72° W 22:24:04 10° NNW
CZ-4B R/B 3.6 22:15:04 10° NNE 22:20:05 56° ESE 22:22:53 26° S
COSMOS 2455 2.7 22:18:40 10° SSW 22:24:38 80° ESE 22:30:40 10° NNE
Milstar 3 Cent rocket 3.2 22:20:20 10° W 22:26:24 29° SSW 22:27:55 25° S
OAO 3 Copernicus 4.2 22:24:50 10° W 22:29:52 77° SSW 22:31:34 42° ESE
MetOp-B 4.1 22:28:00 35° SE 22:30:13 67° ENE 22:35:32 10° N
Cosmos 2228 4.0 22:28:10 10° NNW 22:32:23 46° W 22:35:07 20° SSW
ATLAS 3B R/B 3.1 22:27:21 10° S 22:34:43 52° ESE 22:42:02 10° NE
APEX 4.1 22:30:39 10° NNW 22:34:59 62° WSW 22:37:25 31° S
Centaur D AC-28 3.2 22:40:32 10° WSW 22:42:46 21° SSW 22:42:46 21° SSW
Cosmos 1515 3.5 22:43:53 76° S 22:44:11 90° ESE 22:48:03 10° N
Envisat 3.5 22:42:41 27° SSW 22:45:16 54° W 22:50:15 10° NNW
Cosmos 1066 Rocket 4.2 22:43:48 44° SSE 22:45:26 61° E 22:51:07 10° NNE
USA 234 3.6 22:45:49 32° ESE 22:48:48 57° NE 22:55:12 10° NW
Cosmos 407 Rocket 3.8 22:49:25 45° E 22:49:25 45° E 22:54:18 10° NNE
Abrixas rocket 3.0 22:48:42 10° NW 22:51:25 50° W 22:51:25 50° W
Cosmos 1346 Rocket 3.7 22:55:59 37° NE 22:55:59 37° NE 22:58:37 10° NNE
SL-23 DEB 4.5 22:48:43 10° SW 22:56:04 66° SE 22:58:26 28° ENE
Lacrosse 4 Rocket 2.8 22:59:11 26° NE 22:59:11 26° NE 23:01:08 10° NE
YAOGAN 6 3.0 23:02:20 61° WNW 23:02:20 61° WNW 23:05:43 10° NNW
ISS -1.0 23:04:10 10° W 23:06:56 25° NW 23:09:44 10° NNE
USA 81 3.9 23:01:58 10° N 23:07:17 90° E 23:08:03 67° S
Cosmos 1758 Rocket 4.0 23:10:06 53° NE 23:10:06 53° NE 23:13:37 10° NNE
Cosmos 1943 3.3 23:07:20 29° SSW 23:10:17 74° WNW 23:15:59 10° NNE
Meteor 1-21 4.3 23:11:18 59° ESE 23:11:32 60° E 23:17:14 10° NNE
CZ-4 R/B 4.4 23:08:54 10° N 23:13:49 60° WNW 23:15:27 39° SW
SPOT 5 4.4 23:15:34 22° WSW 23:16:49 25° W 23:20:24 10° NW
Cosmos 1461 4.3 23:15:21 10° NW 23:18:39 29° WSW 23:18:39 29° WSW
Landsat 7 3.9 23:23:17 68° NNE 23:23:17 68° NNE 23:27:34 10° N
Cosmos 1943 Rocket 3.5 23:18:51 10° N 23:23:23 25° ENE 23:23:31 25° ENE
SL-08 RB Rocket 4.0 23:27:20 64° WNW 23:27:20 64° WNW 23:31:29 10° NNW
Cosmos 1992 Rocket 4.1 23:22:57 10° NNW 23:28:08 68° WSW 23:28:11 68° WSW
H-2A R/B 2.2 23:28:49 58° NE 23:28:49 58° NE 23:33:13 10° N
Terra 2.3 23:39:33 56° N 23:39:33 56° N 23:43:23 10° N
Nadezhda 4 Rocket 4.3 23:45:01 54° ENE 23:45:01 54° ENE 23:50:39 10° NNE
SeaSat 1 4.4 23:47:09 18° WSW 23:47:26 18° WSW 23:50:47 10° WNW
ARGOS 4.2 23:52:05 34° WSW 23:52:26 35° W 23:57:22 10° NNW
DMSP B5D2-2 4.3 23:48:33 10° N 23:53:28 66° NW 23:53:28 66° NW
